Location: Mountain Lakes
(44.1215°N, 71.9554°W)
Time: 16:40:16
(UTC+00:00)

Cosmos 1151 Rocket - Pass Details

Date: 08 September 2024
Orbit: 586 x 611 km, 82.5° (Epoch: 12 October)

Event Time Altitude Azimuth Distance (km) Brightness Sun altitude
Rises 23:41:41 0° 355° (N) 2,849 6.7 -6.4°
Reaches altitude 10° 23:43:57 10° 360° (N) 1,938 5.8 -6.8°
Maximum altitude 23:48:10 57° 79° (E) 701 3.1 -7.5°
Drops below altitude 10° 23:52:19 10° 159° (SSE) 1,910 5.2 -8.2°
Sets 23:54:32 0° 163° (SSE) 2,803 6.1 -8.6°
